GW2480 Weather Reports


Display with metric or nautical units.
time (UTC)temp
F
wind
direction
speed
MPH
gust
MPH
rain 1hr
in
rain 24hr
in
rain mn
in
humidity
%
barometer
mb
20260903014106 0 0.0 0.0 0.00 0.21 0.21 1007.8
20260903013601 0 0.0 0.0 0.00 0.21 0.21 1007.7
20260903013056 0 0.0 0.0 0.00 0.21 0.21 1007.6
20260903012555 0 0.0 0.0 0.00 0.21 0.21 1007.6
20260903012048 0 0.0 0.0 0.00 0.21 0.21 1007.8
20260903011543 0 0.0 0.0 0.00 0.21 0.21 1007.5
20260903011038 0 0.0 0.0 0.00 0.21 0.21 1007.6
20260903010533 0 0.0 0.0 0.00 0.21 0.21 1007.6
20260903010031 0 0.0 0.0 0.00 0.21 0.21 1007.5
20260903005531 0 0.0 0.0 0.00 0.21 0.21 1007.4
20260903005027 0 0.0 0.0 0.00 0.21 0.21 1007.5
20260903004527 0 0.0 0.0 0.00 0.21 0.21 1007.5
20260903004022 0 0.0 0.0 0.02 0.21 0.21 1007.5
20260903003518 0 0.0 0.0 0.02 0.21 0.21 1007.8
20260903003013 0 0.0 0.0 0.09 0.20 0.20 1007.6
20260903002513 0 0.0 0.0 0.14 0.20 0.20 1007.8
20260903002007 0 0.0 0.0 0.19 0.19 0.19 1007.8
20260903001502 0 0.0 0.0 0.21 0.18 0.18 1007.7
20260903000956 0 0.0 0.0 0.09 0.15 0.15 1007.6
20260903000454 0 0.0 0.0 0.00 0.14 0.14 1007.6
20260902235949 0 0.0 0.0 0.00 0.14 0.14 1007.4
20260902235445 0 0.0 0.0 0.00 0.14 0.14 1007.4
20260902234944 0 0.0 0.0 0.00 0.14 0.14 1007.2
20260902234440 0 0.0 0.0 0.00 0.14 0.14 1007.4
20260902233938 0 0.0 0.0 0.00 0.14 0.14 1007.0
20260902233433 0 0.0 0.0 0.00 0.14 0.14 1006.8
20260902232932 0 0.0 0.0 0.00 0.14 0.14 1006.7
20260902232427 0 0.0 0.0 0.00 0.14 0.14 1006.9
20260902231927 0 0.0 0.0 0.00 0.14 0.14 1006.9
20260902231422 0 0.0 0.0 0.00 0.14 0.14 1006.9
20260902230916 0 0.0 0.0 0.00 0.14 0.14 1007.0
20260902230416 0 0.0 0.0 0.00 0.14 0.14 1006.8
20260902225910 0 0.0 0.0 0.00 0.14 0.14 1006.8
20260902225405 0 0.0 0.0 0.00 0.14 0.14 1006.9
20260902224903 0 0.0 0.0 0.00 0.14 0.14 1006.7
20260902224358 0 0.0 0.0 0.00 0.14 0.14 1006.8
20260902223855 0 0.0 0.0 0.00 0.14 0.14 1006.8
20260902223355 0 0.0 0.0 0.00 0.14 0.14 1006.8
20260902222849 0 0.0 0.0 0.00 0.14 0.14 1006.8
20260902222348 0 0.0 0.0 0.02 0.14 0.14 1006.5
20260902221842 0 0.0 0.0 0.09 0.14 0.14 1006.6
20260902221342 0 0.0 0.0 0.17 0.13 0.13 1006.7
20260902220837 0 0.0 0.0 0.40 0.12 0.12 1006.6
20260902220337 0 0.0 0.0 0.40 0.10 0.10 1006.8
20260902215832 0 0.0 0.0 0.09 0.05 0.05 1006.7
20260902215327 0 0.0 0.0 0.02 0.04 0.04 1006.7
20260902214823 0 0.0 0.0 0.02 0.03 0.03 1006.6
20260902214322 0 0.0 0.0 0.02 0.03 0.03 1006.6
20260902213817 0 0.0 0.0 0.00 0.02 0.02 1006.6
20260902213313 0 0.0 0.0 0.00 0.02 0.02 1006.8
20260902212811 0 0.0 0.0 0.05 0.02 0.02 1006.6
20260902212308 0 0.0 0.0 0.07 0.02 0.02 1006.9
20260902211804 0 0.0 0.0 0.02 0.02 0.02 1007.1
20260902211300 0 0.0 0.0 0.02 0.01 0.01 1007.0
20260902210800 0 0.0 0.0 0.02 0.01 0.01 1007.2
20260902210254 0 0.0 0.0 0.02 0.01 0.01 1007.0
20260902205753 0 0.0 0.0 0.02 0.01 0.01 1007.2
20260902205248 0 0.0 0.0 0.00 0.00 0.00 1007.5
20260902204743 0 0.0 0.0 0.02 0.00 0.00 1007.3
20260902204239 0 0.0 0.0 0.02 0.00 0.00 1007.4
20260902203739 0 0.0 0.0 0.00 0.00 0.00 1007.4
20260902203233 0 0.0 0.0 0.00 0.00 0.00 1007.7
20260902202728 0 0.0 0.0 0.00 0.00 0.00 1007.6
20260902202225 0 0.0 0.0 0.00 0.00 0.00 1007.6
20260902201721 0 0.0 0.0 0.00 0.00 0.00 1007.7
20260902201220 0 0.0 0.0 0.00 0.00 0.00 1007.7
20260902200715 0 0.0 0.0 0.00 0.00 0.00 1007.4
20260902200211 0 0.0 0.0 0.00 0.00 0.00 1007.5
20260902195706 0 0.0 0.0 0.00 0.00 0.00 1007.5
20260902195205 0 0.0 0.0 0.00 0.00 0.00 1007.3
20260902194704 0 0.0 0.0 0.00 0.00 0.00 1007.3
20260902194200 0 0.0 0.0 0.00 0.00 0.00 1007.3
20260902193655 0 0.0 0.0 0.00 0.00 0.00 1007.4
20260902193151 0 0.0 0.0 0.00 0.00 0.00 1007.5
20260902192649 0 0.0 0.0 0.00 0.00 0.00 1007.4
20260902192148 0 0.0 0.0 0.00 0.00 0.00 1007.7
20260902191643 0 0.0 0.0 0.00 0.00 0.00 1007.6
20260902191137 0 0.0 0.0 0.00 0.00 0.00 1007.5
20260902190633 0 0.0 0.0 0.00 0.00 0.00 1007.7
20260902190128 0 0.0 0.0 0.00 0.00 0.00 1007.6
20260902185624 0 0.0 0.0 0.00 0.00 0.00 1007.7
20260902185120 0 0.0 0.0 0.00 0.00 0.00 1007.7
20260902184614 0 0.0 0.0 0.00 0.00 0.00 1007.7
20260902184110 0 0.0 0.0 0.00 0.00 0.00 1007.8
20260902183606 0 0.0 0.0 0.00 0.00 0.00 1007.9
20260902183102 0 0.0 0.0 0.00 0.00 0.00 1007.8
20260902182558 0 0.0 0.0 0.00 0.00 0.00 1007.7
20260902182054 0 0.0 0.0 0.00 0.00 0.00 1007.9
20260902181550 0 0.0 0.0 0.00 0.00 0.00 1007.8
20260902181044 0 0.0 0.0 0.00 0.00 0.00 1007.8
20260902180538 0 0.0 0.0 0.00 0.00 0.00 1008.0
20260902180035 0 0.0 0.0 0.00 0.00 0.00 1007.9
20260902175534 0 0.0 0.0 0.00 0.00 0.00 1008.0
20260902175030 0 0.0 0.0 0.00 0.00 0.00 1007.9
20260902174526 0 0.0 0.0 0.00 0.00 0.00 1008.1
20260902174022 0 0.0 0.0 0.00 0.00 0.00 1007.9
20260902173522 0 0.0 0.0 0.00 0.00 0.00 1008.0
20260902173022 0 0.0 0.0 0.00 0.00 0.00 1008.3
20260902172521 0 0.0 0.0 0.00 0.00 0.00 1008.2
20260902172016 0 0.0 0.0 0.00 0.00 0.00 1008.4
20260902171512 0 0.0 0.0 0.00 0.00 0.00 1008.1
20260902171008 0 0.0 0.0 0.00 0.00 0.00 1008.4
20260902170503 0 0.0 0.0 0.00 0.00 0.00 1008.4
20260902165958 0 0.0 0.0 0.00 0.00 0.00 1008.4
20260902165457 0 0.0 0.0 0.00 0.00 0.00 1008.4
20260902164952 0 0.0 0.0 0.00 0.00 0.00 1008.6
20260902164447 0 0.0 0.0 0.00 0.00 0.00 1008.5
20260902163946 0 0.0 0.0 0.00 0.00 0.00 1008.5
20260902163442 0 0.0 0.0 0.00 0.00 0.00 1008.4
20260902162939 0 0.0 0.0 0.00 0.00 0.00 1008.6
20260902162434 0 0.0 0.0 0.00 0.00 0.00 1008.7
20260902161929 0 0.0 0.0 0.00 0.00 0.00 1008.8
20260902161424 0 0.0 0.0 0.00 0.00 0.00 1008.7
20260902160920 0 0.0 0.0 0.00 0.00 0.00 1008.7
20260902160415 0 0.0 0.0 0.00 0.00 0.00 1008.8
20260902155913 0 0.0 0.0 0.00 0.00 0.00 1009.0
20260902155409 0 0.0 0.0 0.00 0.00 0.00 1008.9
20260902154903 0 0.0 0.0 0.00 0.00 0.00 1009.0
20260902154359 0 0.0 0.0 0.00 0.00 0.00 1009.0
20260902153857 0 0.0 0.0 0.00 0.00 0.00 1009.1
20260902153356 0 0.0 0.0 0.00 0.00 0.00 1009.1
20260902152852 0 0.0 0.0 0.00 0.00 0.00 1009.2
20260902152348 0 0.0 0.0 0.00 0.00 0.00 1009.3
20260902151843 0 0.0 0.0 0.00 0.00 0.00 1009.3
20260902151338 0 0.0 0.0 0.00 0.00 0.00 1009.4
20260902150833 0 0.0 0.0 0.00 0.00 0.00 1009.5
20260902150329 0 0.0 0.0 0.00 0.00 0.00 1009.6
20260902145829 0 0.0 0.0 0.00 0.00 0.00 1009.7
20260902145324 0 0.0 0.0 0.00 0.00 0.00 1009.6
20260902144819 0 0.0 0.0 0.00 0.00 0.00 1009.6
20260902144316 0 0.0 0.0 0.00 0.00 0.00 1009.7
20260902143810 0 0.0 0.0 0.00 0.00 0.00 1009.7
20260902143305 0 0.0 0.0 0.00 0.00 0.00 1009.8
20260902142801 0 0.0 0.0 0.00 0.00 0.00 1009.9
20260902142257 0 0.0 0.0 0.00 0.00 0.00 1010.0
20260902141756 0 0.0 0.0 0.00 0.00 0.00 1009.9
20260902141252 0 0.0 0.0 0.00 0.00 0.00 1009.9
20260902140746 0 0.0 0.0 0.00 0.00 0.00 1010.0
20260902140242 0 0.0 0.0 0.00 0.00 0.00 1010.2
20260902135741 0 0.0 0.0 0.00 0.00 0.00 1010.0
20260902135237 0 0.0 0.0 0.00 0.00 0.00 1010.0
20260902134736 0 0.0 0.0 0.00 0.00 0.00 1010.0
20260902134231 0 0.0 0.0 0.00 0.00 0.00 1010.1
20260902133721 0 0.0 0.0 0.00 0.00 0.00 1010.4
20260902133220 0 0.0 0.0 0.00 0.00 0.00 1010.2
20260902132715 0 0.0 0.0 0.00 0.00 0.00 1010.2
20260902132211 0 0.0 0.0 0.00 0.00 0.00 1010.2
20260902131706 0 0.0 0.0 0.00 0.00 0.00 1009.9
20260902131203 0 0.0 0.0 0.00 0.00 0.00 1010.2
20260902130658 0 0.0 0.0 0.00 0.00 0.00 1010.1
20260902130154 0 0.0 0.0 0.00 0.00 0.00 1010.3
20260902125648 0 0.0 0.0 0.00 0.00 0.00 1010.4
20260902125144 0 0.0 0.0 0.00 0.00 0.00 1010.2
20260902124635 0 0.0 0.0 0.00 0.00 0.00 1010.3
20260902124134 0 0.0 0.0 0.00 0.00 0.00 1010.4
20260902123631 0 0.0 0.0 0.00 0.00 0.00 1010.4
20260902123131 0 0.0 0.0 0.00 0.00 0.00 1010.6
20260902122625 0 0.0 0.0 0.00 0.00 0.00 1010.8
20260902122120 0 0.0 0.0 0.00 0.00 0.00 1010.6
20260902121615 0 0.0 0.0 0.00 0.00 0.00 1010.6
20260902121110 0 0.0 0.0 0.00 0.00 0.00 1010.7
20260902120606 0 0.0 0.0 0.00 0.00 0.00 1010.7
20260902115557 0 0.0 0.0 0.00 0.00 0.00 1010.7
20260902115053 0 0.0 0.0 0.00 0.00 0.00 1010.8
20260902114549 0 0.0 0.0 0.00 0.00 0.00 1010.9
20260902114048 0 0.0 0.0 0.00 0.00 0.00 1011.0
20260902113544 0 0.0 0.0 0.00 0.00 0.00 1011.0
20260902113039 0 0.0 0.0 0.00 0.00 0.00 1010.8
20260902112534 0 0.0 0.0 0.00 0.00 0.00 1010.9
20260902112031 0 0.0 0.0 0.00 0.00 0.00 1011.2
20260902111527 0 0.0 0.0 0.00 0.00 0.00 1010.9
20260902111022 0 0.0 0.0 0.00 0.00 0.00 1011.0
20260902110518 0 0.0 0.0 0.00 0.00 0.00 1011.0
20260902110014 0 0.0 0.0 0.00 0.00 0.00 1011.0
20260902105509 0 0.0 0.0 0.00 0.00 0.00 1011.2
20260902105008 0 0.0 0.0 0.00 0.00 0.00 1011.3
20260902104504 0 0.0 0.0 0.00 0.00 0.00 1011.2
20260902103958 0 0.0 0.0 0.00 0.00 0.00 1011.1
20260902103454 0 0.0 0.0 0.00 0.00 0.00 1011.3
20260902102949 0 0.0 0.0 0.00 0.00 0.00 1011.5
20260902102445 0 0.0 0.0 0.00 0.00 0.00 1011.3
20260902101942 0 0.0 0.0 0.00 0.00 0.00 1011.3
20260902101436 0 0.0 0.0 0.00 0.00 0.00 1011.4
20260902100935 0 0.0 0.0 0.00 0.00 0.00 1011.3
20260902100430 0 0.0 0.0 0.00 0.00 0.00 1011.5
20260902095924 0 0.0 0.0 0.00 0.00 0.00 1011.4
20260902095419 0 0.0 0.0 0.00 0.00 0.00 1011.6
20260902094918 0 0.0 0.0 0.00 0.00 0.00 1011.5
20260902094414 0 0.0 0.0 0.00 0.00 0.00 1011.5
20260902093909 0 0.0 0.0 0.00 0.00 0.00 1011.7
20260902093404 0 0.0 0.0 0.00 0.00 0.00 1011.3
20260902092902 0 0.0 0.0 0.00 0.00 0.00 1011.5
20260902092359 0 0.0 0.0 0.00 0.00 0.00 1011.6
20260902091859 0 0.0 0.0 0.00 0.00 0.00 1011.5
20260902091354 0 0.0 0.0 0.00 0.00 0.00 1011.7
20260902090851 0 0.0 0.0 0.00 0.00 0.00 1011.8
20260902090350 0 0.0 0.0 0.00 0.00 0.00 1012.0
20260902085849 0 0.0 0.0 0.00 0.00 0.00 1012.1
20260902085344 0 0.0 0.0 0.00 0.00 0.00 1011.8
20260902084839 0 0.0 0.0 0.00 0.00 0.00 1012.2
20260902084331 0 0.0 0.0 0.00 0.00 0.00 1012.2
20260902083826 0 0.0 0.0 0.00 0.00 0.00 1012.3
20260902083326 0 0.0 0.0 0.00 0.00 0.00 1012.2
20260902082821 0 0.0 0.0 0.00 0.00 0.00 1012.3
20260902082317 0 0.0 0.0 0.00 0.00 0.00 1012.4
20260902081813 0 0.0 0.0 0.00 0.00 0.00 1012.4
20260902081308 0 0.0 0.0 0.00 0.00 0.00 1012.3
20260902080803 0 0.0 0.0 0.00 0.00 0.00 1012.3
20260902080301 0 0.0 0.0 0.00 0.00 0.00 1012.2
20260902075759 0 0.0 0.0 0.00 0.00 0.00 1012.4
20260902075255 0 0.0 0.0 0.00 0.00 0.00 1012.4
20260902074750 0 0.0 0.0 0.00 0.00 0.00 1012.6
20260902074246 0 0.0 0.0 0.00 0.00 0.00 1012.7
20260902073740 0 0.0 0.0 0.00 0.00 0.00 1012.6
20260902073236 0 0.0 0.0 0.00 0.00 0.00 1012.7
20260902072732 0 0.0 0.0 0.00 0.00 0.00 1012.6
20260902072228 0 0.0 0.0 0.00 0.00 0.00 1012.4
20260902071724 0 0.0 0.0 0.00 0.00 0.00 1012.7
20260902071219 0 0.0 0.0 0.00 0.00 0.00 1012.6
20260902070716 0 0.0 0.0 0.00 0.00 0.00 1012.6
20260902070214 0 0.0 0.0 0.00 0.00 0.00 1012.4
20260902065714 0 0.0 0.0 0.00 0.00 0.00 1012.4
20260902065210 0 0.0 0.0 0.00 0.00 0.00 1012.4
20260902064705 0 0.0 0.0 0.00 0.00 0.00 1012.5
20260902064201 0 0.0 0.0 0.00 0.00 0.00 1012.6
20260902063656 0 0.0 0.0 0.00 0.00 0.00 1012.4
20260902063150 0 0.0 0.0 0.00 0.00 0.00 1012.6
20260902062649 0 0.0 0.0 0.00 0.00 0.00 1012.5
20260902062145 0 0.0 0.0 0.00 0.00 0.00 1012.5
20260902061643 0 0.0 0.0 0.00 0.00 0.00 1012.6
20260902061140 0 0.0 0.0 0.00 0.00 0.00 1012.6
20260902060636 0 0.0 0.0 0.00 0.00 0.00 1012.6
20260902060132 0 0.0 0.0 0.00 0.00 0.00 1012.7
20260902055628 0 0.0 0.0 0.00 0.00 0.00 1012.9
20260902055123 0 0.0 0.0 0.00 0.00 0.00 1012.6
20260902054618 0 0.0 0.0 0.00 0.00 0.00 1012.7
20260902054114 0 0.0 0.0 0.00 0.00 0.00 1012.7
20260902053609 0 0.0 0.0 0.00 0.00 0.00 1012.9
20260902053103 0 0.0 0.0 0.00 0.00 0.00 1012.7
20260902052557 0 0.0 0.0 0.00 0.00 0.00 1012.7
20260902052053 0 0.0 0.0 0.00 0.00 0.00 1013.0
20260902051553 0 0.0 0.0 0.00 0.00 0.00 1012.9
20260902051052 0 0.0 0.0 0.00 0.00 0.00 1013.0
20260902050546 0 0.0 0.0 0.00 0.00 0.00 1013.0
20260902050042 0 0.0 0.0 0.00 0.00 0.00 1013.0
20260902045537 0 0.0 0.0 0.00 0.00 0.00 1013.0
20260902045033 0 0.0 0.0 0.00 0.00 0.00 1012.8
20260902044527 0 0.0 0.0 0.00 0.00 0.00 1012.9
20260902044023 0 0.0 0.0 0.00 0.00 0.00 1013.2
20260902043518 0 0.0 0.0 0.00 0.00 0.00 1012.8
20260902043013 0 0.0 0.0 0.00 0.00 0.00 1012.9
20260902042512 0 0.0 0.0 0.00 0.00 0.00 1013.0
20260902042008 0 0.0 0.0 0.00 0.00 0.00 1012.9
20260902041502 0 0.0 0.0 0.00 0.00 0.00 1012.8
20260902040957 0 0.0 0.0 0.00 0.00 0.00 1012.8
20260902040457 0 0.0 0.0 0.00 0.00 0.00 1012.8
20260902035956 0 0.0 0.0 0.00 0.00 0.00 1012.8
20260902035451 0 0.0 0.0 0.00 0.00 0.00 1012.8
20260902034950 0 0.0 0.0 0.00 0.00 0.00 1012.8
20260902034445 0 0.0 0.0 0.00 0.00 0.00 1012.7
20260902033944 0 0.0 0.0 0.00 0.00 0.00 1012.8
20260902033438 0 0.0 0.0 0.00 0.00 0.00 1012.8
20260902032937 0 0.0 0.0 0.00 0.00 0.00 1012.7
20260902032432 0 0.0 0.0 0.00 0.00 0.00 1012.7
20260902031927 0 0.0 0.0 0.00 0.00 0.00 1012.5
20260902031422 0 0.0 0.0 0.00 0.00 0.00 1012.5
20260902030919 0 0.0 0.0 0.00 0.00 0.00 1012.7
20260902030413 0 0.0 0.0 0.00 0.00 0.00 1012.6
20260902025911 0 0.0 0.0 0.00 0.00 0.00 1012.6
20260902025407 0 0.0 0.0 0.00 0.00 0.00 1012.6
20260902024902 0 0.0 0.0 0.00 0.00 0.00 1012.6
20260902024358 0 0.0 0.0 0.00 0.00 0.00 1012.6
20260902023853 0 0.0 0.0 0.00 0.00 0.00 1012.6
20260902023348 0 0.0 0.0 0.00 0.00 0.00 1012.5
20260902022847 0 0.0 0.0 0.00 0.00 0.00 1012.5
20260902022342 0 0.0 0.0 0.00 0.00 0.00 1012.5
20260902021839 0 0.0 0.0 0.00 0.00 0.00 1012.6
20260902021333 0 0.0 0.0 0.00 0.00 0.00 1012.5
20260902020829 0 0.0 0.0 0.00 0.00 0.00 1012.5
20260902020325 0 0.0 0.0 0.00 0.00 0.00 1012.2
20260902015820 0 0.0 0.0 0.00 0.00 0.00 1012.6
20260902015316 0 0.0 0.0 0.00 0.00 0.00 1012.5
20260902014811 0 0.0 0.0 0.00 0.00 0.00 1012.7